Katta Gehege Affenhaus Messungen

Zurück zum Überblick

Zeitpunkt Temperatur Luftfeuchte
24.03.2019 12:12:07 17,2 C 52,0%
24.03.2019 12:05:05 17,2 C 52,0%
24.03.2019 11:58:02 17,0 C 52,0%
24.03.2019 11:51:00 16,9 C 53,0%
24.03.2019 11:43:58 16,9 C 53,0%
24.03.2019 11:36:55 16,9 C 54,0%
24.03.2019 11:29:55 16,8 C 56,0%
24.03.2019 11:27:17 16,7 C 61,0%
24.03.2019 11:26:35 16,7 C 56,0%
24.03.2019 11:19:32 16,4 C 59,0%
24.03.2019 11:16:19 16,5 C 64,0%
24.03.2019 11:11:53 16,4 C 57,0%
24.03.2019 11:04:51 15,7 C 62,0%
24.03.2019 11:03:48 15,1 C 68,0%
23.03.2019 19:24:54 20,3 C 51,0%
23.03.2019 19:24:36 20,3 C 43,0%
23.03.2019 19:17:34 20,4 C 43,0%
23.03.2019 19:10:32 20,4 C 44,0%
23.03.2019 19:03:30 20,3 C 44,0%
23.03.2019 18:56:26 20,1 C 44,0%
23.03.2019 18:49:25 19,6 C 45,0%
23.03.2019 18:42:23 19,7 C 45,0%
23.03.2019 18:35:21 19,9 C 45,0%
23.03.2019 18:28:20 20,3 C 44,0%
23.03.2019 18:21:18 20,5 C 44,0%
23.03.2019 18:14:16 20,8 C 43,0%
23.03.2019 18:07:14 21,2 C 43,0%
23.03.2019 18:00:12 21,4 C 43,0%
23.03.2019 17:53:10 21,6 C 43,0%
23.03.2019 17:46:09 22,0 C 43,0%
23.03.2019 17:39:06 22,2 C 43,0%
23.03.2019 17:37:22 22,2 C 43,0%
23.03.2019 17:25:01 22,3 C 43,0%
23.03.2019 17:17:58 22,4 C 43,0%
23.03.2019 17:10:57 22,7 C 42,0%
23.03.2019 17:03:55 22,8 C 42,0%
23.03.2019 16:56:54 23,1 C 40,0%
23.03.2019 16:49:52 23,3 C 39,0%
23.03.2019 16:42:50 23,5 C 39,0%
23.03.2019 16:35:49 23,5 C 39,0%
23.03.2019 16:28:46 23,5 C 39,0%
23.03.2019 16:21:45 23,9 C 41,0%
23.03.2019 16:14:45 23,8 C 44,0%
23.03.2019 16:07:43 23,6 C 44,0%
23.03.2019 16:00:40 23,4 C 44,0%
23.03.2019 15:53:38 23,2 C 44,0%
23.03.2019 15:46:37 23,0 C 44,0%
23.03.2019 15:39:36 22,8 C 44,0%
23.03.2019 15:32:34 22,6 C 44,0%
23.03.2019 15:25:30 22,5 C 45,0%